Flag for U.S.A. Weather past 2 weeks in Wichita, Kansas, U.S.A.

Now
67 °F

Overcast.


Feels Like: 67 °F
Forecast: 61 / 70 °F
Wind: 9 mph from South

Location: Wichita Mid-Continent Airport

Current Time: May 24, 2015 at 12:39:05 PM

Latest Report: May 24, 2015 at 11:53 AM


Visibility: 10 mi

Pressure: 29.88 "Hg

Humidity: 81%

Dew point: 61 °F

Location of WichitaLocation

Historic Weather in Wichita — Graph

°F

Wichita temperature yesterday

Maximum temperature yesterday: 61 °F (at 9:53 PM)
Minimum temperature yesterday: 55 °F (at 12:53 AM)
Average temperature yesterday: 58 °F

Past Weeks' High & Low Weather Summary

 TemperatureHumidityPressure
High80 °F (May 15, 4:53 PM)97% (May 14, 12:53 AM)30.36 "Hg (May 14, 12:53 AM)
Low42 °F (May 12, 6:53 AM)29% (May 11, 6:53 PM)29.63 "Hg (May 17, 12:53 AM)
Average61 °F74%30.02 "Hg
* Reported May 9 10:02 AM — May 24 10:53 AM, Wichita, Weather by CustomWeather, © 2015

Note: Actual official high and low records may vary slightly from our data, if they occured in-between our weather recording intervals... More about our weather records

Advertising

Wichita weather history for previous 24 hours

 ConditionsComfort  
Time TempWeatherWind HumidityBarometerVisibility
10:53 AM
Sun, May 24
64 °FMostly cloudy.9 mph87%29.87 "Hg10 mi
9:53 AM63 °FMostly cloudy.7 mph90%29.88 "Hg10 mi
8:53 AM62 °FMore clouds than sun.3 mph93%29.88 "Hg10 mi
7:53 AM61 °FMore clouds than sun.7 mph93%29.88 "Hg10 mi
6:53 AM60 °FMostly cloudy.5 mph93%29.88 "Hg10 mi
5:53 AM59 °FPassing clouds.No wind93%29.89 "Hg10 mi
4:53 AM60 °FOvercast.9 mph93%29.83 "Hg10 mi
3:53 AM61 °FOvercast.No wind97%29.85 "Hg10 mi
2:53 AM60 °FLow clouds.7 mph96%29.83 "Hg10 mi
1:53 AM61 °FLow clouds.12 mph97%29.87 "Hg10 mi
12:53 AM60 °FLight rain. Mostly cloudy.5 mph93%29.90 "Hg8 mi
11:53 PM
Sat, May 23
59 °FLight rain. Mostly cloudy.7 mph96%29.92 "Hg10 mi
10:53 PM61 °FMostly cloudy.3 mph90%29.90 "Hg10 mi
9:53 PM61 °FLight rain. Passing clouds.10 mph90%29.83 "Hg10 mi
8:53 PM60 °FLight rain. Scattered clouds.24 mph93%29.77 "Hg10 mi
7:53 PM60 °FThunderstorms. Mostly cloudy.21 mph93%29.87 "Hg10 mi
6:53 PM59 °FThunderstorms. Fog.16 mph93%29.96 "Hg4 mi
5:53 PM59 °FThunderstorms. Fog.14 mph93%29.98 "Hg6 mi
4:53 PM59 °FStrong thunderstorms. Fog.13 mph93%30.02 "Hg1 mi
4:02 PM59 °FThunderstorms. Fog.15 mph93%30.02 "Hg5 mi
3:55 PM59 °FThunderstorms. Fog.14 mph93%30.03 "Hg4 mi
2:55 PM59 °FStrong thunderstorms. Fog.9 mph93%30.08 "Hg1 mi
1:53 PM60 °FThunderstorms. Fog.13 mph93%30.08 "Hg1 mi
12:53 PM60 °FThunderstorms. Fog.16 mph93%30.06 "Hg2 mi
Weather by CustomWeather, © 2015

See weather overviewHow to use our weather pages